FW9150 Weather Reports


time (UTC)temp
C
wind
direction
speed
KPH
gust
KPH
rain 1hr
cm
rain 24hr
cm
rain mn
cm
humidity
%
barometer
mb
20260504203628 5 135 0.0 0.0 0.08 0.48 0.48 92 1016.6
20260504202627 5 112 0.0 0.0 0.03 0.43 0.43 92 1016.6
20260504201628 5 360 0.0 0.0 0.00 0.41 0.41 92 1016.5
20260504200629 5 360 0.0 0.0 0.00 0.41 0.41 92 1016.4
20260504195627 5 112 0.0 0.0 0.00 0.41 0.41 92 1016.7
20260504194727 5 180 0.0 0.0 0.00 0.41 0.41 92 1016.6
20260504193729 5 180 0.0 0.0 0.00 0.41 0.41 92 1016.7
20260504191829 6 135 0.0 3.2 0.00 0.41 0.41 92 1016.4
20260504190928 6 138 0.0 1.6 0.00 0.41 0.41 91 1016.4
20260504185929 6 198 1.6 4.8 0.00 0.41 0.41 91 1016.4
20260504184928 6 157 0.0 0.0 0.00 0.41 0.41 91 1016.6
20260504182929 6 157 0.0 1.6 0.00 0.41 0.41 91 1016.7
20260504181028 6 135 0.0 1.6 0.00 0.41 0.41 91 1016.7
20260504180127 6 135 0.0 0.0 0.00 0.41 0.41 91 1016.6
20260504175128 6 135 0.0 0.0 0.00 0.41 0.41 91 1016.9
20260504174128 6 135 0.0 0.0 0.00 0.41 0.41 92 1016.6
20260504173227 6 157 0.0 0.0 0.03 0.41 0.41 92 1016.2
20260504172230 6 157 0.0 0.0 0.03 0.41 0.41 92 1016.2
20260504171328 6 135 0.0 0.0 0.03 0.41 0.41 91 1016.2
20260504160227 5 135 0.0 0.0 0.28 0.38 0.38 93 1016.0
20260504150228 5 135 0.0 0.0 0.10 0.10 0.10 92 1016.2
20260504140327 5 157 0.0 0.0 0.00 0.00 0.00 92 1015.8
20260504130327 6 135 0.0 0.0 0.00 0.00 0.00 90 1015.4
20260504110429 6 135 0.0 0.0 0.00 0.00 0.00 91 1015.5
20260504081027 6 135 0.0 0.0 0.00 0.00 0.00 91 1016.3
20260504070128 7 135 0.0 0.0 0.00 0.00 0.00 90 1016.5
20260504060225 7 131 0.0 3.2 0.00 0.00 0.00 89 1016.2
20260504050326 8 45 0.0 0.0 0.00 0.00 0.00 86 1016.4
20260504045423 8 45 0.0 0.0 0.00 0.00 0.00 86 1016.7
20260504044427 8 45 0.0 0.0 0.00 0.00 0.00 86 1016.6
20260504043525 8 45 0.0 0.0 0.00 0.00 0.00 86 1016.5
20260504042623 8 67 0.0 0.0 0.00 0.00 0.00 86 1016.4
20260504041625 8 67 0.0 0.0 0.00 0.00 0.00 86 1016.2
20260504040626 8 67 0.0 0.0 0.00 0.00 0.00 86 1016.1
20260504035625 8 67 0.0 0.0 0.00 0.00 0.00 85 1016.0
20260504034625 8 67 0.0 0.0 0.00 0.00 0.00 85 1015.9
20260504033626 8 67 0.0 0.0 0.00 0.00 0.00 86 1015.7
20260504032725 8 67 0.0 0.0 0.00 0.00 0.00 85 1015.8
20260504031726 8 67 0.0 0.0 0.00 0.00 0.00 86 1015.7
20260504030725 9 67 0.0 0.0 0.00 0.00 0.00 85 1015.6
20260504025726 9 67 0.0 0.0 0.00 0.00 0.00 85 1015.6
20260504024726 9 45 0.0 0.0 0.00 0.00 0.00 84 1015.5
20260504023725 9 45 0.0 0.0 0.00 0.00 0.00 83 1015.6
20260504022723 9 45 0.0 0.0 0.00 0.00 0.00 83 1015.4
20260504021823 10 45 0.0 0.0 0.00 0.00 0.00 83 1015.4
20260504020824 10 90 0.0 0.0 0.00 0.00 0.00 82 1015.4
20260504015824 10 90 0.0 0.0 0.00 0.00 0.00 81 1015.4
20260504014824 10 73 0.0 0.0 0.00 0.00 0.00 81 1015.4
20260504013841 10 104 0.0 0.0 0.00 0.00 0.00 80 1015.6
20260504011939 11 135 0.0 0.0 0.00 0.00 0.00 79 1015.6
20260504010926 11 135 0.0 0.0 0.00 0.00 0.00 77 1015.4
20260504005924 11 135 0.0 0.0 0.00 0.00 0.00 76 1015.6
20260504004925 12 135 0.0 0.0 0.00 0.00 0.00 75 1015.6
20260504003926 12 135 0.0 0.0 0.00 0.00 0.00 72 1015.5
20260504002925 12 77 0.0 3.2 0.00 0.00 0.00 71 1015.4
20260504001924 12 22 0.0 0.0 0.00 0.00 0.00 70 1015.4
20260504000925 13 22 0.0 0.0 0.00 0.00 0.00 69 1015.6
20260503235926 13 22 0.0 0.0 0.00 0.00 0.00 69 1015.4
20260503234925 13 35 0.0 0.0 0.00 0.00 0.00 69 1015.6
20260503233924 13 135 0.0 0.0 0.00 0.00 0.00 68 1015.6
20260503232924 13 135 0.0 0.0 0.00 0.00 0.00 68 1015.6
20260503231924 13 360 0.0 0.0 0.00 0.00 0.00 68 1015.7
20260503230926 13 360 0.0 0.0 0.00 0.00 0.00 69 1015.7
20260503225925 13 112 0.0 1.6 0.00 0.00 0.00 71 1015.7
20260503224025 13 135 0.0 0.0 0.00 0.00 0.00 71 1015.9
20260503223024 13 135 0.0 1.6 0.00 0.00 0.00 70 1016.1
20260503222024 13 135 0.0 1.6 0.00 0.00 0.00 71 1016.1
20260503221025 13 90 0.0 0.0 0.00 0.00 0.00 70 1016.1
20260503220026 13 135 0.0 1.6 0.00 0.00 0.00 70 1016.1
20260503215024 13 225 0.0 1.6 0.00 0.00 0.00 69 1016.1
20260503214026 13 135 0.0 1.6 0.00 0.00 0.00 70 1016.0
20260503213123 14 45 0.0 0.0 0.00 0.00 0.00 68 1015.9
20260503212124 14 35 1.6 6.4 0.00 0.00 0.00 68 1015.8
20260503211124 15 305 0.0 0.0 0.00 0.00 0.00 58 1016.0
20260503210124 15 149 4.8 9.7 0.00 0.00 0.00 39 1015.8
20260503205125 15 233 3.2 6.4 0.00 0.00 0.00 40 1015.9
20260503204125 15 166 4.8 11.3 0.00 0.00 0.00 39 1015.8